GFSSGP_2pvu_pres_000.txt.gz
Presure
167 173 147 151 132 145 156 169 140 164 154 155 162 155 152 170 168 162 152 160 172 167 163 172 175 170 172 164 224 158 187 160 181 204 221 185 196 182 196 178 210 148 127 127 158 127 144 107 151
150 161 155 146 151 161 143 145 153 150 151 124 104 168 171 162 159 159 169 160 184 185 166 182 192 164 222 241 191 211 222 229 224 242 206 196 231 177 144 162 147 191 194 141 253 168 165 148 135
177 161 157 176 156 168 183 167 184 150 159 164 158 159 164 173 181 173 187 176 194 208 259 204 185 199 179 233 196 229 223 226 215 245 227 220 262 176 189 186 182 169 180 178 191 156 116 171 215
174 167 163 170 169 161 180 176 150 169 170 179 179 179 179 182 172 186 188 166 167 204 241 219 231 226 227 229 232 219 224 221 228 226 223 252 282 192 177 195 161 235 170 191 144 155 230 200 197
163 170 169 167 172 178 167 177 176 186 190 196 188 178 205 202 250 239 238 252 254 251 231 238 234 244 229 229 230 225 229 225 218 233 294 283 250 217 196 181 180 193 176 168 168 167 201 194 191
179 168 166 193 158 179 177 178 201 205 200 218 270 246 254 253 239 259 253 221 245 220 244 251 240 235 232 224 224 224 220 213 217 267 220 291 277 237 219 202 180 174 186 188 172 181 178 181 181
185 176 186 203 185 264 226 279 289 225 286 271 269 267 255 253 248 254 234 241 260 266 245 250 232 220 228 222 220 212 212 216 213 239 260 257 235 219 220 222 232 189 215 180 178 184 197 198 194
185 200 243 206 288 288 284 279 259 267 255 247 256 262 256 271 230 257 232 262 250 226 240 237 240 231 229 221 214 208 203 205 198 251 271 247 238 233 221 218 204 202 221 195 182 179 182 184 185
263 278 274 271 269 270 266 265 269 264 261 261 258 260 266 264 267 260 259 256 246 244 240 239 228 222 218 217 208 203 200 203 249 247 262 238 216 210 216 198 180 197 196 189 185 188 176 184 185
276 272 266 280 287 305 305 301 290 279 272 268 266 262 260 253 261 254 247 246 244 238 229 231 225 223 214 214 215 205 205 192 200 245 256 234 201 210 184 203 198 193 190 202 196 178 199 200 204
301 300 292 286 283 280 272 268 260 266 259 255 255 249 251 249 245 252 248 241 238 232 232 226 221 220 216 204 207 201 200 198 202 235 231 251 197 202 193 192 184 185 186 175 170 184 192 190 185
264 278 270 265 269 276 271 260 260 256 258 255 258 261 260 256 254 246 242 236 232 227 225 218 214 212 216 216 210 205 200 193 191 218 223 245 199 195 201 188 187 194 174 168 184 192 185 180 200
258 248 245 257 247 255 262 259 257 249 245 250 243 251 240 243 241 234 230 234 232 221 217 216 217 214 225 200 215 202 206 188 190 195 212 228 219 210 195 190 187 189 175 172 187 190 194 180 175
261 306 293 234 223 225 211 231 219 248 283 264 282 284 273 242 238 231 221 217 216 215 213 210 212 212 212 221 228 218 208 192 194 191 184 213 220 209 198 197 194 185 191 191 171 198 196 182 195
275 269 231 240 262 200 237 278 258 229 212 198 215 224 209 280 236 281 274 239 288 275 237 229 233 228 229 232 219 226 223 208 197 186 200 205 212 218 197 183 209 182 191 194 199 181 181 193 187
215 236 238 249 215 210 195 232 275 219 209 244 267 241 218 265 251 225 234 232 224 262 277 290 200 203 283 225 230 239 229 227 207 194 196 185 194 184 206 197 180 185 202 185 201 188 187 191 190
182 214 166 190 199 216 230 201 185 211 222 230 208 217 215 196 179 223 245 209 213 261 197 228 258 264 224 243 271 253 223 242 219 210 194 185 181 185 202 192 191 186 177 192 211 203 187 192 199
197 182 195 194 162 184 207 194 199 181 192 196 193 168 216 205 186 243 230 199 190 237 202 228 266 262 223 206 233 262 273 233 226 239 203 194 195 192 201 187 190 184 185 182 186 203 201 194 187
209 213 204 206 198 201 211 165 199 167 201 212 219 230 196 158 209 193 196 195 220 175 196 231 229 205 232 179 253 206 172 228 234 230 243 242 200 195 196 196 192 186 182 198 193 199 195 215 196
203 207 208 204 209 201 206 169 190 200 167 198 208 202 207 213 184 212 205 213 204 192 182 219 213 213 229 204 196 208 240 249 250 267 225 238 233 215 205 206 198 198 187 201 190 194 195 196 183
193 183 197 204 200 201 202 202 208 207 202 207 214 198 209 205 204 201 193 208 190 191 207 204 215 210 220 231 237 250 227 233 229 227 222 265 278 254 235 210 207 194 186 193 199 192 192 193 196
192 192 195 199 199 195 191 194 193 198 202 192 208 192 196 209 208 210 210 209 202 194 198 207 212 220 218 192 207 226 260 248 275 265 247 278 278 248 257 274 218 213 205 200 200 200 195 194 207
186 187 182 186 204 198 187 181 193 202 200 194 199 191 195 191 200 191 208 201 208 211 195 210 195 212 214 190 201 197 224 263 253 280 283 258 281 277 278 289 269 234 199 211 209 205 192 194 204
183 189 190 191 185 193 190 190 176 196 199 189 189 190 188 191 192 190 197 203 201 202 211 204 215 216 213 218 224 221 228 251 244 207 157 273 264 273 283 276 283 288 297 215 234 211 218 215 214
177 185 186 178 183 177 186 182 183 188 190 197 195 193 194 187 181 197 200 196 205 209 200 200 211 212 205 215 216 216 225 245 245 283 282 278 271 282 272 282 276 279 288 221 283 277 265 224 222
185 193 184 183 182 178 176 181 184 177 185 189 189 184 180 198 191 197 200 201 201 207 206 200 210 195 205 215 218 237 234 263 259 282 279 283 266 288 302 284 255 275 283 292 295 291 305 271 301
181 192 182 175 180 181 143 190 173 180 81 189 192 196 190 200 193 189 200 198 202 203 204 211 210 208 211 226 214 239 235 286 279 281 293 288 289 290 323 300 284 283 280 287 234 295 297 297 313
181 196 181 178 175 173 125 169 186 119 187 181 187 194 187 196 206 196 199 190 202 198 212 211 210 204 210 212 216 227 251 244 268 289 292 288 308 333 333 317 310 271 287 290 285 287 294 301 314
173 200 197 204 162 164 159 140 184 178 179 185 184 185 185 182 195 196 197 204 192 197 210 205 209 212 214 218 214 232 255 290 279 291 299 313 313 324 322 319 305 299 299 300 245 298 304 309 318
157 181 167 194 194 166 134 171 184 96 183 190 197 191 190 195 191 190 197 200 198 204 201 220 207 218 215 227 219 243 266 301 292 313 312 321 323 318 309 303 308 312 302 297 300 309 314 355 368

GFSSGP_2pvu_pres_003.txt.gz
Presure
151 159 138 169 168 146 154 159 135 153 144 140 145 166 151 148 152 152 158 101 165 187 170 156 171 167 165 173 184 186 195 185 184 187 186 199 247 225 204 200 92 173 190 175 160 124 93 142 126
127 150 156 150 153 161 151 169 169 157 173 186 168 168 171 159 174 162 161 167 177 169 165 168 192 188 172 190 183 209 215 189 253 228 167 202 250 214 199 197 197 194 194 179 176 142 180 195 194
152 161 158 156 153 158 160 147 149 175 178 174 168 154 166 162 170 168 177 170 174 184 183 189 183 196 194 247 240 236 244 249 239 237 137 238 227 214 65 78 192 181 182 115 166 194 186 180 193
151 149 143 154 139 130 172 164 173 179 174 180 154 160 152 158 172 181 192 250 184 236 238 204 205 212 238 245 259 236 231 231 244 231 229 234 226 197 185 184 180 191 77 186 173 173 125 162 176
166 159 161 166 160 154 167 168 145 169 174 198 213 183 187 196 203 236 219 266 234 263 246 234 246 251 233 229 232 215 249 219 243 218 238 229 237 216 209 184 176 182 185 165 158 182 172 184 180
185 179 175 160 154 182 177 187 196 182 208 204 199 237 227 185 239 250 268 250 259 234 244 248 240 236 235 220 226 243 241 235 230 227 224 219 223 218 200 194 183 194 191 177 165 162 201 178 169
189 165 185 201 204 260 219 218 216 263 272 273 278 276 272 275 264 261 252 259 232 252 261 238 263 248 244 230 248 242 231 225 217 223 218 218 209 211 224 188 183 182 187 167 172 170 167 157 174
199 216 232 276 259 292 288 291 289 281 280 268 266 266 265 267 270 260 258 261 261 261 269 266 262 220 251 220 238 228 226 234 228 218 217 216 202 199 192 244 189 184 173 207 195 176 171 171 168
262 236 292 280 285 267 271 279 272 274 272 267 266 274 264 279 272 267 260 261 254 254 255 252 257 248 242 239 235 227 227 224 217 215 210 211 209 215 276 301 260 185 180 185 181 179 180 174 167
277 275 273 277 311 309 324 316 309 303 295 288 268 260 266 258 261 256 253 248 254 251 249 247 246 244 239 229 221 224 223 211 217 206 206 205 203 204 283 272 293 189 180 184 184 180 181 176 163
280 278 295 296 295 291 285 280 272 293 261 256 257 269 266 262 264 260 258 251 249 255 244 234 174 237 235 229 218 213 216 207 205 209 204 204 201 217 264 264 252 270 255 171 175 176 174 176 174
291 258 252 253 245 260 249 261 272 264 261 261 257 259 258 252 251 250 252 249 247 242 245 245 238 236 227 224 223 217 214 208 217 196 207 198 203 236 237 255 231 197 239 240 194 174 173 175 172
289 271 286 282 269 241 259 233 227 234 233 232 229 217 236 282 248 237 225 238 237 231 228 228 234 235 226 218 225 220 218 214 214 191 211 203 197 201 228 252 214 216 217 227 226 206 208 200 191
251 245 262 261 257 252 275 286 265 245 233 262 241 265 223 257 276 252 226 308 277 257 237 314 295 275 275 232 229 221 218 213 213 221 223 188 206 190 236 242 210 224 210 209 210 207 189 196 176
197 253 236 220 213 206 198 202 199 254 213 211 206 202 258 213 199 203 282 233 225 215 221 190 248 215 211 275 260 237 219 215 215 219 227 220 205 196 193 224 207 207 202 201 199 201 198 185 196
238 203 164 215 212 208 225 232 168 195 215 235 215 229 187 190 219 192 227 254 210 215 202 259 207 199 250 217 224 263 236 240 281 262 262 224 217 205 194 211 223 208 197 195 200 195 197 188 181
172 204 179 181 190 205 171 179 213 205 214 174 159 211 203 200 176 211 211 196 215 201 212 182 196 204 181 209 173 200 248 218 179 272 261 270 229 217 196 199 205 186 214 191 196 191 194 191 184
208 209 204 192 183 170 199 175 196 206 198 174 192 196 191 206 172 161 198 207 198 188 215 204 178 171 220 200 188 207 164 199 218 251 209 228 301 204 225 197 197 204 228 196 195 186 196 194 202
214 203 204 210 207 203 204 207 205 208 204 202 189 190 205 197 201 166 213 211 203 212 189 211 193 219 208 166 164 159 223 225 204 168 228 259 229 235 227 228 202 193 202 208 199 189 188 198 195
196 195 194 194 190 196 180 197 207 194 195 195 199 196 190 198 184 209 185 191 198 207 202 201 201 206 197 210 213 188 210 180 216 213 228 229 201 208 204 288 288 204 194 198 212 236 182 182 186
191 193 194 195 207 192 193 200 201 201 194 198 194 198 197 199 191 186 193 192 191 205 200 210 195 192 198 205 206 216 212 199 211 204 222 221 203 264 172 280 250 241 220 203 200 198 209 199 179
183 180 187 191 188 186 197 189 185 189 194 192 194 195 190 190 195 201 194 193 193 198 202 207 202 210 193 195 196 212 209 207 216 206 206 224 251 238 271 262 290 241 270 229 200 202 204 195 202
181 192 185 194 187 185 185 183 176 188 179 184 187 189 194 189 188 191 190 190 192 191 190 196 200 201 202 209 217 209 196 212 212 220 212 209 257 264 285 297 290 302 292 290 296 230 195 196 209
193 191 193 191 187 187 181 176 174 172 191 146 179 150 188 190 190 194 192 193 192 198 202 201 193 197 202 220 221 207 212 210 215 221 210 222 245 278 304 297 309 296 294 307 282 302 298 229 213
188 186 187 184 175 180 179 139 179 165 165 175 117 186 187 192 188 194 197 195 199 202 192 204 202 204 199 212 218 223 198 216 220 224 218 214 247 293 310 311 245 332 306 293 297 299 281 317 300
191 196 179 172 179 185 171 183 177 177 171 174 179 179 187 181 190 183 192 192 198 190 189 191 200 200 207 212 214 226 211 231 224 223 223 221 176 317 321 320 295 277 307 307 295 301 300 297 207
172 190 195 192 187 177 179 125 149 185 181 179 175 179 188 192 188 197 200 188 191 193 192 193 197 198 212 214 214 215 228 236 237 219 227 243 283 337 342 315 305 327 306 313 307 304 312 342 334
175 167 182 173 125 170 145 161 181 175 181 183 176 188 177 200 190 191 183 189 188 192 197 202 201 199 208 214 213 220 225 234 240 231 234 257 301 355 352 347 339 321 325 312 319 329 331 328 241
166 157 155 146 184 165 163 156 137 165 174 181 176 185 176 191 182 190 185 195 188 188 191 202 197 203 207 211 215 220 227 225 252 235 252 292 353 330 344 338 335 327 324 321 321 320 318 326 326
166 162 110 128 197 208 167 164 177 131 161 175 165 182 182 184 188 194 190 196 192 185 190 200 194 202 205 207 216 223 229 230 250 252 288 307 336 326 335 322 325 321 323 324 321 321 320 321 322

GFSSGP_2pvu_pres_006.txt.gz
Presure
148 147 138 140 143 160 145 138 138 148 144 147 158 159 160 157 159 157 157 156 165 158 157 170 168 168 163 169 176 178 168 175 194 191 208 234 141 138 262 210 196 207 204 219 147 146 173 123 133
168 161 144 159 153 153 153 158 173 160 160 163 151 164 162 157 160 175 163 178 179 173 169 186 190 178 176 190 196 199 187 229 224 211 199 208 242 240 67 251 236 216 207 216 212 202 167 144 181
152 155 156 185 131 152 158 158 175 163 160 158 155 151 145 163 181 164 187 162 168 182 179 187 210 195 187 223 204 233 243 206 251 243 238 239 240 229 265 177 214 209 214 219 185 201 180 178 190
131 148 156 151 153 149 155 163 167 169 174 171 178 174 167 186 178 191 197 204 203 239 222 206 229 210 283 183 226 243 217 238 237 231 264 227 246 230 241 222 220 194 192 190 139 193 169 172 191
134 147 143 154 170 172 166 175 176 175 187 199 157 188 196 223 241 259 237 247 241 276 286 238 240 271 241 258 239 270 243 245 244 255 238 229 229 222 232 223 227 203 192 214 189 193 173 124 85
158 168 146 164 164 163 173 190 152 157 175 185 213 248 313 280 162 111 129 253 262 233 269 267 275 255 266 248 254 253 244 246 232 239 230 238 243 246 239 226 205 199 209 190 189 188 170 165 183
169 170 195 171 196 189 202 271 222 235 272 240 273 274 232 228 250 280 248 238 232 268 281 263 277 260 265 254 262 252 241 244 248 244 243 242 242 232 235 233 200 191 198 196 176 179 179 175 183
189 179 188 192 199 171 266 289 267 211 278 283 282 298 275 259 264 262 266 285 291 276 272 279 256 268 255 257 260 252 242 231 235 231 233 233 236 227 228 225 239 195 190 193 177 175 170 183 190
173 191 220 218 283 276 295 282 304 296 295 324 320 311 313 306 297 286 279 279 274 266 266 258 263 259 256 252 249 245 243 241 238 237 231 231 234 239 222 215 215 192 195 183 184 179 187 187 186
217 206 267 287 286 322 316 302 301 298 297 289 286 287 280 275 276 281 280 273 271 266 261 255 255 254 252 251 230 240 240 235 231 223 230 218 220 228 222 219 209 200 194 180 182 174 181 187 185
315 316 301 288 268 271 263 260 258 254 272 260 254 257 251 255 261 251 266 259 247 246 242 249 245 248 248 247 241 241 235 223 221 221 219 225 209 219 213 214 205 202 211 179 181 183 182 212 192
306 308 305 300 306 255 247 280 296 266 258 268 289 278 275 228 279 299 272 302 240 273 261 249 239 245 245 231 237 238 236 227 227 225 218 226 225 217 214 217 210 202 205 188 213 186 183 178 177
316 276 276 276 287 289 278 260 260 287 258 200 221 242 255 238 224 213 225 237 237 277 299 252 215 232 287 275 294 264 236 223 216 211 215 216 210 211 223 215 214 210 210 197 231 268 195 191 179
259 248 234 230 236 230 216 212 245 209 228 261 220 223 205 234 236 226 222 235 225 211 218 240 232 229 213 216 245 196 257 248 252 240 222 216 216 215 219 201 218 211 207 199 236 260 229 184 193
229 232 233 228 211 192 233 222 207 219 213 223 202 221 165 231 199 202 225 155 186 241 249 188 187 240 228 235 189 245 206 221 252 249 227 240 260 215 219 221 231 211 211 205 217 251 251 193 184
234 220 228 229 225 218 225 208 228 186 213 191 184 187 195 219 202 208 178 200 218 198 172 202 203 219 178 218 161 202 229 198 205 227 244 214 217 215 249 253 278 236 213 213 203 237 248 226 234
216 198 217 213 195 214 186 214 217 166 173 180 204 193 212 189 199 203 202 191 215 203 185 192 195 180 190 195 218 190 206 198 201 211 214 188 233 204 230 232 233 252 274 219 205 204 239 225 225
213 206 195 205 189 205 191 182 206 181 194 207 208 202 200 196 205 190 202 197 194 176 194 187 205 204 199 191 212 186 196 205 172 215 169 172 224 201 237 212 209 238 267 257 225 201 214 236 215
207 202 201 198 207 193 209 213 207 205 199 202 198 197 195 197 198 199 200 208 191 192 183 184 171 196 208 195 198 199 218 220 217 192 183 218 225 209 228 184 217 231 248 270 263 246 203 226 211
192 188 193 188 199 189 194 192 193 204 191 196 198 201 182 192 192 197 199 201 194 207 203 202 202 202 203 202 205 209 203 212 215 219 227 204 202 194 234 214 220 213 196 221 236 251 233 208 229
192 190 194 197 197 192 186 185 181 185 184 193 191 197 185 191 184 181 183 190 187 191 190 192 190 197 192 186 199 195 206 213 210 215 216 222 214 232 239 231 222 207 242 243 213 303 246 249 218
159 199 194 190 183 181 186 187 194 185 183 181 148 180 182 184 103 196 194 195 195 194 190 195 193 192 198 192 192 203 199 204 202 208 214 216 216 224 224 239 225 219 235 227 210 323 309 208 289
195 193 195 186 183 186 177 173 176 185 182 178 180 177 181 174 183 199 196 192 191 185 187 186 189 189 189 196 189 188 203 202 205 208 214 215 218 226 224 240 253 234 222 256 288 316 332 201 294
192 192 191 184 185 176 177 176 164 182 171 172 168 179 157 169 173 188 177 190 186 190 182 193 190 187 187 190 193 202 193 199 200 209 218 221 216 223 231 241 251 243 267 287 299 335 335 320 319
185 188 191 191 191 179 177 176 194 169 159 169 166 179 178 170 179 177 191 178 187 192 185 191 195 183 184 192 195 194 194 196 202 205 217 234 216 231 235 241 242 280 295 312 359 360 344 327 312
180 173 186 185 177 163 150 187 193 194 163 166 147 171 172 177 169 183 188 170 183 181 187 195 194 165 199 183 188 199 195 195 203 204 211 225 230 243 240 242 270 311 373 368 365 353 347 333 322
170 188 166 181 189 149 180 182 188 173 170 132 180 156 175 184 162 186 181 196 180 183 184 190 144 196 194 193 193 200 195 198 199 214 210 222 241 234 248 254 316 373 359 347 338 354 347 340 337
181 172 171 151 158 147 187 155 112 146 167 182 127 159 159 201 169 190 183 195 181 191 185 191 193 194 194 197 192 198 194 201 206 211 230 224 247 241 273 325 366 345 335 337 329 339 337 340 335
187 188 152 166 171 157 156 129 100 163 154 140 131 167 154 194 183 186 194 190 187 185 196 185 193 197 197 192 191 199 195 196 214 219 245 223 245 254 289 354 340 333 325 322 323 322 329 330 332
179 173 177 161 166 142 157 160 118 169 170 124 179 159 180 189 172 183 201 189 194 190 190 193 194 197 196 199 194 203 197 212 215 194 232 247 252 275 357 349 334 325 319 319 319 321 319 321 325

GFSSGP_2pvu_pres_009.txt.gz
Presure
155 143 186 161 131 127 160 170 157 158 155 154 158 155 167 154 141 170 160 156 167 160 163 163 166 166 165 181 166 159 188 236 194 189 214 210 221 217 223 226 228 184 238 217 235 205 204 213 204
145 144 145 156 151 160 151 132 153 127 155 149 138 130 140 151 154 153 163 168 168 170 155 179 191 165 198 204 215 232 230 229 228 216 227 213 203 242 195 258 217 251 247 247 215 221 227 208 74
153 131 119 138 142 129 150 122 127 151 139 142 159 152 150 163 168 164 181 197 199 201 202 201 182 192 239 209 232 227 228 226 247 236 240 236 250 230 245 247 235 219 249 241 237 218 213 213 209
144 167 148 155 174 148 146 149 140 157 160 141 165 155 187 190 167 188 199 188 181 176 183 241 242 275 244 295 289 281 277 280 271 244 253 254 243 258 236 242 228 257 231 229 256 219 221 217 195
134 133 174 164 159 142 184 162 152 180 165 171 189 163 192 186 210 213 204 229 246 224 243 232 236 223 222 152 183 224 215 238 255 239 254 253 233 259 249 249 249 224 224 232 211 213 184 88 183
158 168 166 165 182 171 155 170 166 167 163 158 171 201 182 217 243 258 279 262 221 248 243 240 262 258 245 233 253 255 256 266 269 250 259 207 251 243 239 241 233 231 227 205 227 210 189 182 192
155 140 158 149 160 173 168 170 192 184 182 220 281 246 277 298 276 273 292 247 248 255 246 264 281 270 285 243 271 259 269 270 256 261 255 255 237 250 246 231 241 242 224 195 195 207 207 188 208
170 163 156 167 181 159 173 177 210 190 295 277 283 324 337 326 289 282 268 253 263 269 274 255 256 265 263 263 259 257 258 252 254 247 240 238 241 232 229 239 230 239 233 216 200 194 197 184 178
176 176 180 184 187 192 201 246 316 304 309 297 298 296 289 286 275 269 285 281 278 284 275 267 267 263 261 256 257 249 247 246 244 239 233 239 234 238 239 240 233 233 228 231 202 201 194 197 182
187 189 171 212 208 235 300 276 292 281 274 267 263 261 258 259 258 262 298 308 242 259 244 244 249 247 245 234 244 247 247 240 240 224 223 227 231 231 225 225 232 237 226 220 211 207 194 186 190
182 197 259 321 322 285 283 286 263 276 304 291 297 318 306 303 241 275 255 292 296 288 274 279 249 239 236 314 302 295 230 230 231 234 238 236 232 225 225 227 221 227 229 220 211 208 222 192 192
305 305 303 300 308 297 300 281 272 259 246 261 229 254 213 278 262 242 269 232 231 218 242 243 251 250 239 220 223 217 264 265 266 264 234 231 225 231 238 223 225 208 225 216 213 209 237 207 185
264 272 253 245 261 243 250 247 246 244 242 225 240 240 226 220 223 211 205 222 228 236 224 216 199 198 217 236 242 200 250 206 234 229 240 242 254 246 229 222 224 225 218 226 212 195 201 195 211
237 254 252 213 229 239 254 218 219 236 188 234 223 198 219 219 222 188 185 232 201 182 211 199 227 212 195 196 191 202 203 204 218 230 215 199 240 237 253 253 251 225 214 229 219 208 201 192 197
197 194 211 233 248 241 208 232 233 229 212 226 200 157 185 171 195 207 205 173 186 213 202 185 182 200 206 176 212 211 207 203 186 190 222 216 216 246 240 227 235 240 236 264 217 226 197 202 190
235 226 207 225 219 232 220 201 195 206 200 204 208 180 204 212 203 209 192 174 193 215 186 195 200 176 204 192 192 170 192 210 218 212 216 229 225 213 204 209 215 191 221 223 259 232 248 218 193
217 218 206 216 218 208 213 199 212 195 206 209 208 205 175 210 208 191 204 176 177 189 183 199 195 184 192 205 195 184 190 186 191 182 205 208 193 183 201 225 193 228 229 239 237 243 253 252 267
212 205 202 206 201 199 219 217 214 215 207 208 204 199 207 194 194 194 199 202 197 193 200 198 197 194 194 196 203 194 182 186 189 201 187 206 214 216 217 218 207 213 228 206 202 240 226 238 262
204 204 196 203 203 202 194 195 187 187 178 192 205 196 170 193 192 196 200 197 201 192 194 181 188 193 195 192 192 193 193 192 198 195 196 196 204 187 201 214 215 225 229 233 222 180 249 240 229
205 204 202 204 190 191 191 190 197 190 181 183 187 187 185 185 189 180 197 197 200 196 188 189 190 193 183 185 188 192 193 193 203 203 203 188 199 204 205 204 210 209 217 218 226 236 245 235 238
205 199 197 157 194 190 186 202 178 181 183 185 165 179 181 185 175 166 180 180 199 180 188 199 191 187 193 194 193 194 192 178 192 198 197 194 193 194 201 204 209 223 218 223 238 245 246 240 264
199 199 191 195 188 185 192 193 164 178 190 164 172 177 169 176 182 180 173 176 182 183 170 167 177 184 186 192 197 195 191 194 191 198 195 193 195 194 199 205 208 212 235 219 236 228 236 249 261
199 198 162 195 191 186 197 187 157 188 188 175 167 168 173 156 170 116 181 196 183 183 191 189 182 186 185 179 188 197 194 195 201 194 191 197 199 196 194 207 211 220 234 234 244 250 242 271 273
194 199 188 178 195 177 181 180 157 189 178 175 168 164 169 179 164 171 181 186 186 180 168 178 183 182 185 188 189 187 196 198 196 192 194 193 204 208 200 201 208 224 255 261 252 255 254 294 310
196 185 183 178 175 188 183 160 193 165 178 116 172 168 139 174 156 154 175 180 165 160 168 189 185 183 182 180 183 188 188 191 187 188 201 201 203 210 219 205 215 234 271 278 258 267 289 371 383
198 188 180 191 171 186 170 169 94 137 144 116 173 183 135 178 141 173 171 160 184 166 173 187 175 182 177 190 192 181 189 192 196 196 206 206 197 212 225 225 221 261 290 271 263 282 363 366 361
198 201 190 178 170 167 158 112 185 134 113 112 152 154 124 174 183 160 155 180 183 182 165 170 176 179 184 197 196 195 189 192 199 204 205 203 212 201 223 228 243 293 283 277 286 326 312 346 318
191 189 203 186 175 173 168 129 129 114 111 145 149 178 189 133 187 161 185 183 192 189 187 175 178 182 179 192 199 196 188 195 197 206 212 213 216 225 232 239 253 303 286 306 359 364 350 336 332
189 186 190 206 200 162 161 169 131 122 165 140 142 109 130 169 131 184 183 173 187 195 195 175 181 178 192 191 195 195 192 204 197 206 219 217 221 238 237 245 307 304 316 370 362 348 340 332 325
190 182 200 100 191 186 152 161 117 184 180 151 184 160 171 125 170 185 193 175 189 190 192 193 182 181 194 191 193 199 189 200 212 213 217 228 227 243 243 266 309 320 363 360 346 340 335 328 320

GFSSGP_2pvu_pres_012.txt.gz
Presure
140 157 146 122 151 147 149 141 130 160 149 112 146 158 155 146 134 142 142 144 155 153 144 144 152 165 175 185 158 198 229 191 230 210 180 243 208 267 234 232 252 245 233 228 228 253 133 160 186
151 144 146 145 126 116 126 138 135 134 150 146 135 127 150 166 128 132 146 180 165 141 179 190 179 189 215 182 200 218 234 232 215 250 265 255 234 270 267 244 252 255 230 241 245 225 254 200 252
126 136 143 112 138 156 147 174 148 138 148 140 154 160 155 156 174 152 183 174 170 184 167 184 190 231 227 214 234 226 220 226 215 237 226 239 245 245 238 244 267 225 235 234 259 236 225 241 243
116 169 143 159 171 146 158 136 147 154 159 158 157 172 168 175 144 151 160 193 178 238 178 233 227 220 230 230 227 269 231 241 235 251 256 238 227 261 252 230 246 228 255 222 234 236 236 227 216
157 165 152 130 147 144 149 160 155 161 163 157 165 147 143 155 174 174 200 204 254 221 224 259 128 264 267 273 254 249 243 245 239 266 253 276 248 263 253 254 239 251 240 227 241 244 229 224 235
147 151 142 160 168 171 165 154 157 141 157 157 158 176 178 178 192 200 230 243 276 291 272 273 265 271 245 240 261 281 291 267 272 249 245 255 262 256 249 247 240 242 228 235 236 240 225 217 224
154 161 165 169 170 178 172 166 165 155 157 178 174 188 196 209 284 319 308 286 260 275 268 259 252 255 260 274 279 276 267 267 262 259 256 262 257 258 254 253 237 234 242 229 222 227 214 210 218
175 178 170 172 159 151 162 181 182 181 193 198 213 310 302 310 294 323 301 281 269 272 245 284 290 268 262 266 266 261 252 253 244 246 244 239 236 241 239 233 239 237 227 218 223 228 216 209 230
179 178 178 170 178 170 172 173 183 254 265 291 288 276 307 248 293 319 267 265 285 273 274 251 255 263 263 247 249 242 241 247 249 250 247 243 236 239 236 234 235 223 228 224 217 230 228 222 230
152 160 171 173 184 187 186 196 202 250 301 311 333 314 274 284 265 285 283 314 297 248 296 284 267 253 248 243 299 292 287 290 268 262 236 235 237 235 226 216 231 236 231 233 219 221 220 207 216
179 177 188 187 209 197 197 230 283 284 267 266 254 265 234 246 240 249 249 230 240 224 219 223 218 223 240 232 219 210 211 246 214 225 243 257 257 267 265 229 234 226 222 215 226 229 223 215 201
253 209 212 200 225 302 281 254 245 255 248 247 256 246 235 222 249 233 218 221 225 211 216 228 229 211 194 219 217 226 232 203 227 211 211 212 234 216 231 246 272 232 218 235 228 222 228 223 217
254 250 251 241 223 239 261 234 252 247 240 213 206 226 233 234 220 209 161 226 212 200 201 211 195 213 208 207 202 214 214 211 206 203 212 191 226 227 226 226 218 236 252 271 222 218 232 223 211
217 238 231 247 256 201 223 215 235 233 241 233 214 215 205 219 180 213 203 203 178 183 195 212 187 198 194 155 203 198 175 187 208 221 201 207 200 197 200 216 215 231 234 237 231 246 256 236 215
219 237 205 236 252 245 241 244 222 233 215 230 209 212 208 211 218 211 197 192 210 195 195 195 204 206 197 195 194 191 194 199 195 171 174 182 182 187 200 211 196 207 211 208 231 242 229 223 243
224 235 218 219 217 233 215 203 217 211 208 216 207 209 193 209 209 206 214 211 197 168 195 212 144 201 203 200 202 205 213 204 200 203 204 203 150 206 206 206 202 174 210 222 208 205 227 241 239
223 223 217 208 207 195 221 222 219 209 206 210 207 209 211 205 198 201 187 199 200 205 199 199 192 192 200 161 197 196 199 200 193 191 196 200 202 203 203 203 182 203 207 209 215 213 220 225 222
221 207 201 200 206 207 201 195 206 187 189 191 203 181 182 178 192 191 183 183 176 174 187 184 172 181 186 192 191 192 188 191 196 199 192 192 200 196 194 197 192 197 198 204 209 212 210 227 215
203 203 202 205 199 192 195 162 188 181 184 187 178 184 187 184 183 172 173 173 176 184 191 179 180 190 189 176 187 184 191 198 195 196 193 191 187 192 200 198 194 199 202 203 196 204 216 219 227
206 204 204 197 198 192 194 193 198 193 189 190 188 175 167 169 173 173 179 178 182 197 198 190 185 189 178 184 183 182 179 179 180 185 194 202 195 193 189 190 192 192 194 202 206 205 205 213 220
215 208 206 201 196 195 152 191 198 179 171 189 188 173 173 168 169 190 184 166 175 172 182 182 184 177 171 193 191 187 185 182 179 181 186 189 188 191 191 191 192 204 202 202 202 212 213 223 215
208 207 199 200 204 195 198 197 184 197 188 188 191 181 180 171 155 171 181 185 183 164 178 182 187 172 171 186 177 173 169 181 187 193 193 192 183 185 192 194 200 204 206 205 212 213 214 233 227
208 213 198 203 196 185 199 176 184 191 171 177 187 163 163 161 169 172 172 171 176 177 182 182 176 149 154 157 172 171 171 177 178 184 194 196 195 195 189 192 201 208 206 215 216 221 215 229 235
207 210 197 188 182 184 175 177 215 155 146 159 135 155 147 120 170 128 171 179 175 135 170 174 143 174 181 150 179 178 177 174 174 164 183 185 203 195 197 195 199 210 206 220 220 220 233 242 255
204 199 209 196 188 180 180 171 172 146 133 143 165 131 107 152 174 142 185 180 130 148 174 174 172 171 176 188 183 185 188 179 180 177 193 191 195 194 199 195 198 216 216 233 239 226 254 266 271
195 192 195 199 200 187 187 184 158 182 123 179 136 139 169 145 154 166 125 185 167 165 139 175 187 191 193 180 191 174 204 205 206 203 197 200 202 206 208 193 205 221 233 240 243 258 277 266 280
183 189 184 197 190 187 193 180 98 96 167 150 164 154 137 144 164 183 125 181 183 176 157 181 186 199 198 203 185 193 198 203 208 205 203 199 205 223 227 230 234 245 255 267 266 272 267 284 334
177 177 185 186 193 194 157 178 159 174 133 118 180 175 165 170 160 135 146 120 131 156 188 192 185 193 196 196 199 202 204 205 201 205 206 213 226 231 239 247 243 252 263 279 277 286 301 338 362
176 180 187 156 196 196 165 112 165 168 157 161 158 169 156 172 182 174 184 189 148 180 183 186 192 193 202 197 210 206 204 211 222 227 234 242 252 253 252 252 273 307 284 329 331 331 373 329 306
175 186 190 196 186 193 173 159 161 168 169 107 169 169 181 187 176 174 171 126 184 195 200 194 204 209 203 202 202 205 216 226 236 247 236 240 258 283 339 334 336 332 332 334 351 318 314 303 273

GFSSGP_2pvu_pres_015.txt.gz
Presure
130 152 133 134 130 149 116 101 127 159 158 144 144 133 149 125 153 130 148 162 155 160 130 133 167 156 169 181 151 172 162 163 188 235 192 225 242 236 237 238 226 226 233 237 231 219 267 242 255
135 77 119 146 139 142 121 153 155 145 135 120 135 138 141 148 153 152 138 125 138 160 156 158 161 173 167 161 193 187 192 241 243 252 229 226 232 247 246 271 254 252 234 249 260 249 256 236 247
127 145 121 99 132 161 155 146 135 154 152 147 148 166 161 146 152 165 158 179 178 161 180 185 191 164 184 195 225 226 231 282 245 262 255 254 256 250 240 240 255 252 228 235 234 258 255 261 234
120 119 139 135 137 120 133 139 165 161 134 123 132 154 156 126 167 171 156 178 188 189 174 170 207 222 226 234 266 267 249 257 263 257 251 240 240 243 239 252 228 226 236 257 240 240 253 234 245
141 143 137 138 175 141 138 139 149 148 173 152 158 156 157 154 149 151 170 202 175 189 221 250 263 293 259 259 252 274 259 243 244 248 262 284 262 257 247 271 255 242 270 250 257 252 230 241 221
127 128 138 154 120 169 160 149 140 140 157 165 148 160 167 170 159 176 192 189 246 305 298 278 268 238 257 261 259 257 246 267 266 268 266 257 267 260 266 262 264 263 254 251 260 239 228 236 218
149 119 129 155 147 164 165 162 160 160 164 173 149 169 167 179 166 206 189 328 320 309 291 281 273 264 263 277 292 269 273 276 256 263 259 253 252 250 248 247 250 253 252 246 248 246 230 231 217
133 117 168 172 167 166 162 160 159 160 163 154 156 178 197 213 189 287 273 269 251 253 284 276 325 265 243 252 256 253 242 259 254 264 263 255 251 246 242 239 239 243 238 240 238 230 247 244 219
125 161 149 172 168 167 176 172 166 158 168 183 224 262 303 279 260 256 263 320 255 311 256 279 272 265 264 249 274 293 287 291 296 284 283 281 269 250 229 232 223 222 233 238 234 234 220 219 217
166 172 161 153 157 157 164 175 187 191 239 313 305 304 273 218 267 270 268 261 236 243 230 238 235 252 253 243 237 229 227 221 252 224 225 232 231 242 237 249 253 256 221 226 229 231 228 222 219
142 174 168 160 173 183 188 181 297 295 298 275 212 256 266 254 255 211 251 229 237 238 230 243 240 212 221 210 235 198 225 232 222 227 229 215 234 230 233 228 235 237 235 250 247 221 225 224 225
177 185 177 179 196 296 298 285 245 196 259 252 209 253 241 245 223 241 239 241 229 221 213 169 209 211 166 212 213 206 211 205 207 202 202 205 207 205 209 214 226 218 222 236 234 241 247 227 213
197 184 213 201 235 231 232 239 233 243 229 251 244 231 236 238 231 226 219 214 213 208 209 214 199 207 200 197 201 193 192 192 189 193 177 201 205 200 205 201 195 193 205 185 217 221 229 227 234
192 242 200 217 219 255 258 221 233 226 247 230 231 219 225 217 214 214 199 201 205 207 212 195 197 197 197 190 192 187 192 195 196 192 194 188 192 193 186 200 181 203 215 209 199 200 204 216 216
226 251 185 248 233 233 226 235 234 240 230 203 229 217 219 205 217 201 203 204 209 211 200 211 212 193 197 201 185 199 198 203 205 201 203 206 203 204 202 194 206 143 194 196 200 212 215 204 204
243 240 215 224 223 198 217 214 210 212 216 211 213 206 204 201 196 202 205 207 203 198 194 198 194 193 193 194 192 169 188 195 196 195 195 196 207 200 191 192 197 204 204 205 201 201 213 211 205
239 227 226 211 222 213 190 209 209 201 211 206 174 199 201 179 188 196 190 189 186 181 187 182 179 182 184 182 180 181 178 181 189 184 184 186 188 192 195 194 192 190 194 196 199 200 196 204 207
209 204 223 215 201 209 203 200 203 201 191 191 190 191 181 191 189 197 188 188 184 182 175 183 193 170 174 185 184 179 167 187 185 183 184 184 185 185 187 184 193 193 194 195 193 192 197 201 208
219 216 197 212 200 203 202 199 196 198 197 193 191 192 190 188 172 183 165 171 184 184 167 179 172 174 182 176 172 173 169 187 187 184 180 178 180 183 182 184 186 191 184 187 191 195 197 200 207
209 215 213 207 207 201 203 197 197 186 189 188 177 176 193 180 166 144 168 157 176 174 175 180 181 182 174 178 172 181 177 168 175 173 170 166 174 173 172 174 182 188 195 194 191 185 188 190 207
207 205 217 211 202 202 198 203 197 190 203 199 198 201 187 178 164 168 173 180 166 170 159 186 188 181 183 185 189 182 191 176 186 189 187 193 185 179 188 172 175 179 184 187 193 200 199 193 199
206 207 215 209 203 203 197 203 198 199 190 176 200 170 188 196 177 120 146 152 183 161 159 136 171 185 185 174 173 174 141 189 186 132 186 185 183 182 193 197 194 197 206 195 194 198 191 201 197
205 207 216 205 198 202 189 183 169 166 195 199 160 168 176 143 147 142 124 168 162 125 150 125 182 127 146 186 127 164 191 144 185 170 193 192 194 195 194 202 206 205 206 202 203 200 203 197 212
193 205 198 204 210 206 198 189 181 186 168 157 167 144 167 154 151 130 117 173 158 155 125 175 170 174 175 181 184 179 180 190 187 188 194 201 203 200 203 205 210 213 218 227 233 237 246 243 250
192 202 200 197 198 200 194 197 197 114 189 194 136 123 141 167 147 126 174 156 167 169 168 120 128 138 131 119 174 195 194 188 195 199 201 216 232 232 230 225 228 236 248 253 255 248 254 265 264
184 194 180 186 184 187 188 191 195 188 178 196 197 164 187 193 136 159 159 173 181 173 184 182 170 182 135 182 180 182 195 206 203 221 224 228 229 230 234 257 264 261 275 270 280 290 290 289 305
183 181 182 175 180 185 184 192 199 193 118 166 176 168 180 180 133 172 166 173 173 143 122 173 187 181 191 200 191 204 204 205 219 226 228 235 238 270 279 290 268 272 347 344 334 331 328 334 333
186 183 185 185 180 134 188 122 193 178 123 176 178 167 179 177 137 136 174 164 169 168 154 144 129 192 193 200 204 190 220 224 223 237 237 242 243 288 280 282 302 283 313 305 295 295 309 284 280
187 182 187 187 188 197 201 185 70 126 183 177 179 181 182 175 172 161 160 170 174 146 172 200 196 195 202 207 211 224 215 226 222 225 251 288 275 281 295 284 279 280 280 295 300 293 285 283 288
177 179 188 193 183 188 184 179 185 193 187 182 183 182 138 178 173 145 195 187 190 167 203 163 207 209 214 213 220 217 228 243 217 272 286 287 300 301 277 272 267 282 284 261 256 268 268 270 266